SCP
0 0 0 0 0 0 0 0 0 0 0 0 0 0 0 0 0 0 0 0 0 0 -0 -0 0 0 0 0 0 0 0 0 0 0 0 0 0 0 0 0 0 0 0 0
0 0 0 0 0 0 0 0 0 0 0 0 0 0 0 0 0 0 0 0 0 0 0 -0 0 0 0 0 0 0 0 0 0 0 0 0 0 0 0 0 0 0 0 0
0 0 0 0 0 0 0 0 0 0 0 0 0 0 0 0 0 0 0 0 0 0 0 0 0 0 0 0 0 0 0 0 0 0 0 0 0 0 0 0 0 0 0 0
0 0 0 0 0 0 0 0 0 0 0 0 0 0 0 0 0 0 0 0 0 0 0 0 0 0 0 0 0 0 0 0 0 0 0 0 0 0 0 0 0 0 0 0
0 0 0 0 0 0 0 0 0 0 0 0 0 0 0 0 0 0 0 0 0 0 0 0 0 0 0 0 0 0 0 0 0 0 0 0 0 0 0 0 0 0 0 0
0 0 0 0 0 0 0 0 0 0 0 0 0 0 0 0 0 0 0 0 0 0 0 0 0 0 0 0 0 0 0 0 0 0 0 0 0 0 0 0 0 0 0 0
0 0 0 0 0 0 0 0 0 0 0 0 0 0 0 0 0 0 0 0 0 0 0 0 0 0 0 0 0 0 0 0 0 0 0 0 0 0 0 0 0 0 0 0
0 0 0 0 0 0 0 0 0 0 0 0 0 0 0 0 0 0 0 0 0 0 0 0 0 0 0 0 0 0 0 0 0 0 0 0 0 0 0 0 0 0 0 0
0 0 0 0 0 0 0 0 0 0 0 0 0 0 0 0 0 0 0 0 0 0 0 0 0 0 0 0 0 0 0 0 0 0 0 0 0 0 0 0 0 0 0 0
0 0 0 0 0 0 0 0 0 0 0 0 0 0 0 0 0 0 0 0 0 0 0 0 0 0 0 0 0 0 0 0 0 0 0 0 0 0 0 0 0 0 0 0
0 0 0 0 0 0 0 0 0 0 0 0 0 0 0 0 0 0 0 0 0 0 0 0 0 0 0 0 0 0 0 0 0 0 0 0 0 0 0 0 0 0 0 0
0 0 0 0 0 0 0 0 0 0 0 0 0 0 0 0 0 0 0 0 0 0 0 0 0 0 0 0 0 0 0 0 0 0 0 0 0 0 0 0 0 0 0 0
0 0 0 0 0 0 0 0 0 0 0 0 0 0 0 0 0 0 0 0 0 0 0 0 0 0 0 0 0 0 0 0 0 0 0 0 0 0 0 0 0 0 0 0
0 0 0 0 0 0 0 0 0 0 0 0 0 0 0 0 0 0 0 0 0 0 0 0 0 0 0 0 0 0 0 0 0 0 0 0 0 0 0 0 0 0 0 0
0 0 0 0 0 0 0 0 0 0 0 0 0 0 0 0 0 0 0 0 0 0 0 0 0 0 0 0 0 0 0 0 0 0 0 0 0 0 0 0 0 0 0 0
0 0 0 0 0 0 0 0 0 0 0 0 0 0 0 0 0 0 0 0 0 0 0 0 0 0 0 0 0 0 0 0 0 0 0 0 0 0 0 0 0 0 0 0
0 0 0 0 0 0 0 0 0 0 0 0 0 0 0 0 0 0 0 0 0 0 0 0 0 0 0 0 0 0 0 0 0 0 0 0 0 0 0 0 0 0 0 0
0 0 0 0 0 0 0 0 0 0 0 0 0 0 0 0 0 0 0 0 0 0 0 0 0 0 0 0 0 0 0 0 0 0 0 0 0 0 0 0 0 0 0 0
0 0 0 0 0 0 0 0 0 0 0 0 0 0 0 0 0 0 0 0 0 0 0 0 0 0 0 0 0 0 0 0 0 0 0 0 0 0 0 0 0 0 0 0
0 0 0 0 0 0 0 0 0 0 0 0 0 0 0 0 0 0 0 0 0 0 0 0 0 0 0 0 0 0 0 0 0 0 0 0 0 0 0 0 0 0 0 0
0 0 0 0 0 0 0 0 0 0 0 0 0 0 0 0 0 0 0 0 0 0 0 0 0 0 0 0 0 0 0 0 0 0 0 0 0 0 0 0 0 0 0 0
0 0 0 0 0 0 0 0 0 0 0 0 0 0 0 0 0 0 0 0 0 -0 0 0 0 0 0 0 0 0 0 0 0 0 0 0 0 0 0 0 0 0 0 0
0 0 0 0 0 0 0 0 0 0 0 0 0 0 0 0 0 0 0 0 0 0 -0 0 0 0 0 0 0 0 0 0 0 0 0 0 0 0 0 0 0 0 0 0
0 0 0 0 0 0 0 0 0 0 0 0 0 0 0 0 0 0 0 0 0 0 -0 0 0 0 0 0 0 0 0 0 0 0 0 0 0 0 0 0 0 0 0 0
0 0 0 0 0 0 0 0 0 0 0 0 0 0 0 0 0 0 0 0 0 0 0 0 0 0 0 0 0 0 0 0 0 0 0 0 0 0 0 0 0 0 0 0
0 0 0 0 0 0 0 0 0 0 0 0 0 0 0 0 0 0 0 0 0 0 0 0 0 0 0 0 0 0 0 0 0 0 0 0 0 0 0 0 0 0 0 0
0 0 0 0 0 0 0 0 0 0 0 0 0 0 0 0 0 0 0 0 0 0 0 0 0 0 0 0 0 0 0 0 0 0 0 0 0 0 0 0 0 0 0 0
Wind_Speed_500mb
20 17 12 15 17 19 16 13 15 16 19 17 9 10 3 4 8 7 11 17 39 55 59 55 56 57 56 57 59 57 61 67 64 70 72 65 67 69 66 66 66 65 70 68
13 11 17 13 23 24 12 8 6 13 10 5 16 27 19 13 14 11 11 10 24 45 57 59 61 59 52 55 53 52 53 57 62 66 71 64 62 66 68 67 68 65 70 71
10 10 13 11 19 20 12 10 16 12 15 15 9 19 19 15 18 19 16 20 21 23 33 48 56 53 52 52 46 45 46 49 55 60 66 67 63 64 69 68 67 65 70 72
8 10 7 15 1 12 15 6 7 11 13 15 29 40 31 22 21 22 22 25 29 27 30 35 42 49 51 48 41 39 41 46 50 53 60 64 62 64 67 69 68 67 68 73
10 8 7 1 6 15 15 12 8 16 15 22 31 18 12 21 21 24 25 26 29 29 33 35 36 37 43 38 31 33 37 41 44 48 52 58 61 64 68 69 68 66 69 72
6 9 16 15 4 4 7 5 16 17 18 20 37 8 5 17 22 25 24 28 27 25 22 22 18 21 26 28 20 20 25 31 37 44 49 54 58 62 65 67 67 67 70 71
5 7 9 8 2 3 15 15 29 28 25 28 10 15 26 20 25 30 31 28 30 28 23 18 11 7 12 16 10 11 19 25 34 37 46 51 58 62 63 67 70 72 72 73
5 8 12 7 2 12 6 27 48 36 32 43 41 32 24 21 25 28 33 29 27 29 29 21 14 5 3 3 10 17 22 25 30 35 41 52 53 59 64 68 71 74 76 70
4 3 8 9 4 9 35 52 41 39 34 38 36 27 21 20 20 23 27 29 29 21 17 16 11 6 6 9 11 15 22 29 30 37 39 44 53 57 66 70 74 77 75 69
6 9 10 20 22 35 43 35 33 38 38 31 29 21 14 10 13 16 19 22 23 22 21 17 16 18 22 23 22 25 26 25 29 33 35 40 49 55 65 73 76 77 75 70
8 5 25 31 38 43 45 44 43 39 33 25 17 11 3 4 10 15 20 23 26 27 23 18 16 19 24 30 34 35 33 31 30 36 38 38 46 50 55 65 70 69 69 69
8 16 14 15 23 29 35 33 29 26 21 15 8 4 1 5 9 14 21 27 30 29 28 27 27 27 27 29 34 42 46 44 41 38 41 44 51 55 54 55 57 61 65 63
19 42 31 36 29 25 26 26 23 19 15 11 6 3 7 11 14 17 20 24 29 30 27 27 27 27 27 24 28 34 47 54 54 50 45 48 52 58 69 63 66 70 65 56
30 41 33 33 21 27 23 22 17 11 5 1 6 12 17 22 28 32 36 38 41 44 44 43 38 27 27 30 32 33 34 42 56 64 64 61 58 59 66 70 73 71 68 61
14 14 16 24 32 27 20 14 7 3 5 9 13 18 21 25 28 31 34 39 45 49 52 55 59 54 43 39 38 40 42 43 48 59 72 75 72 68 69 73 78 76 72 72
12 16 24 35 33 27 18 10 8 9 10 10 10 12 16 20 24 27 30 34 41 45 46 49 53 56 63 63 57 50 49 51 52 54 64 77 83 80 79 81 83 83 78 78
28 26 27 28 26 23 19 16 16 15 12 10 12 17 22 27 31 32 33 35 39 43 42 43 51 52 54 57 64 68 63 57 57 62 65 67 82 90 87 87 86 87 83 80
23 18 19 20 28 30 29 25 19 14 13 14 20 25 29 31 35 39 41 44 45 45 44 50 53 52 50 53 56 62 69 72 66 67 69 72 73 82 89 89 90 86 86 83
3 16 20 26 28 30 26 23 20 17 15 18 22 24 27 30 34 38 41 47 49 53 50 52 55 57 56 53 52 58 65 69 74 72 73 74 74 73 80 90 88 88 88 83
1 5 11 16 21 23 24 24 21 22 20 23 24 28 33 36 38 41 44 53 51 50 51 56 60 65 63 59 54 59 59 63 71 72 74 79 76 78 78 84 83 87 91 89
13 19 26 30 32 31 31 29 29 30 26 29 34 38 41 43 42 45 51 58 54 47 55 62 66 65 62 59 56 55 61 63 63 67 73 79 82 81 84 77 77 87 89 86
22 25 27 29 35 39 37 39 41 42 43 42 43 48 47 48 46 50 51 55 56 54 61 68 68 61 63 64 62 61 61 63 63 64 71 77 79 82 81 79 75 80 81 83
28 30 32 35 42 50 54 59 62 63 60 55 50 48 49 49 50 54 63 57 60 60 64 65 63 61 63 69 67 66 64 61 61 63 70 74 74 75 75 70 71 71 75 76
29 29 35 40 46 50 55 57 61 61 65 59 53 50 53 57 58 58 61 62 59 60 63 67 67 65 65 72 70 66 64 62 58 60 68 70 72 73 75 67 69 67 63 67
32 36 41 45 49 51 50 48 49 48 46 53 61 64 62 59 63 68 68 67 64 61 62 63 66 64 66 71 70 63 61 59 56 55 64 71 73 75 75 70 69 66 66 68
40 41 43 45 47 49 51 52 52 50 53 58 64 60 63 71 76 74 71 66 64 64 66 63 66 67 70 73 71 61 57 56 52 48 54 62 68 69 69 69 68 71 71 66
44 44 46 48 43 41 41 44 48 51 51 54 60 60 65 71 75 74 68 63 66 65 66 68 62 65 69 73 68 56 48 42 34 31 35 49 58 63 65 66 66 66 63 67
Wind_Direction_500mb
208 179 169 173 176 175 189 178 170 210 197 226 171 161 89 295 288 296 285 264 242 242 241 246 254 260 262 260 261 255 248 246 245 240 239 240 236 234 233 234 235 241 240 241
184 198 183 192 205 188 191 127 105 132 231 146 107 110 79 34 9 22 360 321 265 251 251 250 254 259 264 263 262 262 254 251 247 242 239 239 237 234 235 232 234 238 236 237
211 154 122 272 190 182 172 169 154 161 208 161 100 88 67 36 14 360 351 335 322 296 270 258 259 262 263 266 265 266 261 255 250 244 239 240 239 235 233 232 235 241 236 235
145 114 172 249 310 160 139 120 147 99 116 134 134 107 72 40 15 358 349 340 334 314 297 282 268 260 255 261 262 265 262 258 255 249 242 240 237 235 232 233 239 243 237 234
141 184 272 324 180 148 161 209 199 138 129 129 148 154 48 33 21 7 358 346 338 320 308 297 280 262 248 249 254 261 261 261 259 252 244 238 235 234 232 235 238 238 237 232
143 150 203 223 170 134 118 235 198 155 143 146 147 139 233 47 37 29 18 7 357 347 336 323 305 262 235 230 242 257 266 265 262 259 251 244 239 233 234 235 237 237 231 228
163 184 285 261 293 62 142 229 162 165 146 141 126 131 125 83 56 41 34 29 24 17 32 47 77 136 216 222 233 264 270 269 259 257 251 242 236 233 234 233 232 230 226 223
104 112 251 28 350 167 205 128 143 140 129 119 122 124 113 85 62 44 34 34 40 43 45 56 78 69 5 274 281 278 278 274 268 255 246 240 236 235 233 232 230 225 220 218
154 187 345 340 161 178 144 143 149 145 141 137 132 125 112 88 65 50 40 34 32 33 44 58 64 47 321 324 315 304 284 277 267 253 244 239 240 234 232 231 227 222 219 218
82 6 20 54 107 129 143 137 144 142 143 143 133 125 109 72 38 20 13 13 15 12 18 10 340 325 314 306 292 291 294 294 275 258 253 248 240 238 235 230 226 222 220 220
63 95 79 78 101 115 116 123 126 128 130 125 134 130 125 341 339 338 334 334 334 334 332 325 311 307 298 290 289 282 281 284 278 267 254 250 248 246 242 242 238 235 231 234
191 209 127 144 122 123 121 120 127 138 132 132 144 148 240 304 311 306 304 309 313 317 313 306 295 294 293 286 276 276 272 271 273 267 260 254 245 243 240 239 239 238 240 248
180 173 172 153 152 149 142 137 139 146 146 155 159 233 291 303 305 305 304 303 301 303 307 307 299 292 297 300 293 280 274 269 266 266 265 259 252 248 242 238 235 234 236 241
128 137 129 146 150 146 145 139 137 132 134 224 295 300 299 297 294 294 292 291 290 292 294 295 296 296 297 290 289 288 287 278 271 267 268 265 258 253 248 246 242 239 238 232
159 192 174 170 158 153 151 146 148 196 258 279 291 299 302 304 305 306 305 303 299 296 291 287 286 284 281 281 279 278 281 281 278 273 267 264 261 253 250 248 246 240 236 228
136 171 171 166 161 161 167 179 220 241 251 261 280 302 314 318 319 319 318 318 316 315 316 312 302 294 280 276 276 273 270 274 279 273 270 266 260 255 247 245 243 239 237 234
137 143 159 170 182 193 205 212 217 220 229 259 290 302 307 307 304 309 316 315 315 316 319 319 313 305 295 286 278 275 274 268 267 273 274 266 262 256 252 244 241 241 236 235
215 219 212 226 221 211 211 210 208 222 252 276 292 301 307 309 310 310 307 308 311 314 317 321 321 317 308 297 288 279 272 270 267 267 270 268 264 259 252 248 244 240 236 238
129 227 234 227 223 219 221 223 232 245 258 280 291 302 310 315 318 313 310 307 308 308 314 313 317 315 312 309 302 291 277 271 267 262 262 265 260 257 255 250 246 242 237 236
22 255 238 236 233 238 246 247 246 257 275 284 294 306 312 317 320 317 312 311 316 314 309 312 314 315 312 309 306 307 296 275 266 263 259 257 256 253 254 252 249 244 240 235
298 284 275 267 257 253 256 259 263 272 282 282 290 298 303 308 316 319 319 318 328 316 309 311 315 315 313 309 301 296 298 292 274 263 259 257 255 253 252 251 251 245 240 236
314 302 294 274 263 262 264 267 270 274 277 280 288 292 290 300 307 311 315 322 323 322 318 316 317 316 316 313 305 295 292 288 282 266 258 254 253 253 254 253 252 248 241 237
300 298 297 288 285 280 279 277 274 272 271 274 286 290 284 291 301 308 311 318 320 323 327 328 322 316 315 315 310 302 294 287 282 269 259 253 251 251 251 250 251 247 238 235
299 294 294 295 294 295 293 286 279 280 271 263 272 282 282 288 294 297 304 308 310 315 319 323 324 318 315 317 313 307 300 290 277 271 263 254 248 247 247 247 247 244 239 237
303 297 294 293 293 294 299 300 287 279 275 271 284 282 278 281 292 300 297 299 304 305 311 316 323 319 316 318 315 308 302 294 281 269 258 254 248 247 243 243 243 241 239 234
297 296 296 295 294 294 291 286 287 290 290 286 288 290 274 284 292 292 294 288 296 297 302 309 318 317 316 316 316 309 303 294 283 270 261 254 249 244 241 241 240 239 239 232
303 298 297 295 291 292 289 288 287 287 289 289 290 289 289 289 288 289 286 284 290 289 293 304 307 314 312 313 314 306 298 287 278 274 266 257 251 247 245 242 240 239 233 226
Wind_Speed_850mb
20 17 12 15 17 19 16 13 15 16 19 17 9 10 3 4 8 7 11 17 39 55 59 55 56 57 56 57 59 57 61 67 64 70 72 65 67 69 66 66 66 65 70 68
13 11 17 13 23 24 12 8 6 13 10 5 16 27 19 13 14 11 11 10 24 45 57 59 61 59 52 55 53 52 53 57 62 66 71 64 62 66 68 67 68 65 70 71
10 10 13 11 19 20 12 10 16 12 15 15 9 19 19 15 18 19 16 20 21 23 33 48 56 53 52 52 46 45 46 49 55 60 66 67 63 64 69 68 67 65 70 72
8 10 7 15 1 12 15 6 7 11 13 15 29 40 31 22 21 22 22 25 29 27 30 35 42 49 51 48 41 39 41 46 50 53 60 64 62 64 67 69 68 67 68 73
10 8 7 1 6 15 15 12 8 16 15 22 31 18 12 21 21 24 25 26 29 29 33 35 36 37 43 38 31 33 37 41 44 48 52 58 61 64 68 69 68 66 69 72
6 9 16 15 4 4 7 5 16 17 18 20 37 8 5 17 22 25 24 28 27 25 22 22 18 21 26 28 20 20 25 31 37 44 49 54 58 62 65 67 67 67 70 71
5 7 9 8 2 3 15 15 29 28 25 28 10 15 26 20 25 30 31 28 30 28 23 18 11 7 12 16 10 11 19 25 34 37 46 51 58 62 63 67 70 72 72 73
5 8 12 7 2 12 6 27 48 36 32 43 41 32 24 21 25 28 33 29 27 29 29 21 14 5 3 3 10 17 22 25 30 35 41 52 53 59 64 68 71 74 76 70
4 3 8 9 4 9 35 52 41 39 34 38 36 27 21 20 20 23 27 29 29 21 17 16 11 6 6 9 11 15 22 29 30 37 39 44 53 57 66 70 74 77 75 69
6 9 10 20 22 35 43 35 33 38 38 31 29 21 14 10 13 16 19 22 23 22 21 17 16 18 22 23 22 25 26 25 29 33 35 40 49 55 65 73 76 77 75 70
8 5 25 31 38 43 45 44 43 39 33 25 17 11 3 4 10 15 20 23 26 27 23 18 16 19 24 30 34 35 33 31 30 36 38 38 46 50 55 65 70 69 69 69
8 16 14 15 23 29 35 33 29 26 21 15 8 4 1 5 9 14 21 27 30 29 28 27 27 27 27 29 34 42 46 44 41 38 41 44 51 55 54 55 57 61 65 63
19 42 31 36 29 25 26 26 23 19 15 11 6 3 7 11 14 17 20 24 29 30 27 27 27 27 27 24 28 34 47 54 54 50 45 48 52 58 69 63 66 70 65 56
30 41 33 33 21 27 23 22 17 11 5 1 6 12 17 22 28 32 36 38 41 44 44 43 38 27 27 30 32 33 34 42 56 64 64 61 58 59 66 70 73 71 68 61
14 14 16 24 32 27 20 14 7 3 5 9 13 18 21 25 28 31 34 39 45 49 52 55 59 54 43 39 38 40 42 43 48 59 72 75 72 68 69 73 78 76 72 72
12 16 24 35 33 27 18 10 8 9 10 10 10 12 16 20 24 27 30 34 41 45 46 49 53 56 63 63 57 50 49 51 52 54 64 77 83 80 79 81 83 83 78 78
28 26 27 28 26 23 19 16 16 15 12 10 12 17 22 27 31 32 33 35 39 43 42 43 51 52 54 57 64 68 63 57 57 62 65 67 82 90 87 87 86 87 83 80
23 18 19 20 28 30 29 25 19 14 13 14 20 25 29 31 35 39 41 44 45 45 44 50 53 52 50 53 56 62 69 72 66 67 69 72 73 82 89 89 90 86 86 83
3 16 20 26 28 30 26 23 20 17 15 18 22 24 27 30 34 38 41 47 49 53 50 52 55 57 56 53 52 58 65 69 74 72 73 74 74 73 80 90 88 88 88 83
1 5 11 16 21 23 24 24 21 22 20 23 24 28 33 36 38 41 44 53 51 50 51 56 60 65 63 59 54 59 59 63 71 72 74 79 76 78 78 84 83 87 91 89
13 19 26 30 32 31 31 29 29 30 26 29 34 38 41 43 42 45 51 58 54 47 55 62 66 65 62 59 56 55 61 63 63 67 73 79 82 81 84 77 77 87 89 86
22 25 27 29 35 39 37 39 41 42 43 42 43 48 47 48 46 50 51 55 56 54 61 68 68 61 63 64 62 61 61 63 63 64 71 77 79 82 81 79 75 80 81 83
28 30 32 35 42 50 54 59 62 63 60 55 50 48 49 49 50 54 63 57 60 60 64 65 63 61 63 69 67 66 64 61 61 63 70 74 74 75 75 70 71 71 75 76
29 29 35 40 46 50 55 57 61 61 65 59 53 50 53 57 58 58 61 62 59 60 63 67 67 65 65 72 70 66 64 62 58 60 68 70 72 73 75 67 69 67 63 67
32 36 41 45 49 51 50 48 49 48 46 53 61 64 62 59 63 68 68 67 64 61 62 63 66 64 66 71 70 63 61 59 56 55 64 71 73 75 75 70 69 66 66 68
40 41 43 45 47 49 51 52 52 50 53 58 64 60 63 71 76 74 71 66 64 64 66 63 66 67 70 73 71 61 57 56 52 48 54 62 68 69 69 69 68 71 71 66
44 44 46 48 43 41 41 44 48 51 51 54 60 60 65 71 75 74 68 63 66 65 66 68 62 65 69 73 68 56 48 42 34 31 35 49 58 63 65 66 66 66 63 67
Wind_Direction_850mb
208 179 169 173 176 175 189 178 170 210 197 226 171 161 89 295 288 296 285 264 242 242 241 246 254 260 262 260 261 255 248 246 245 240 239 240 236 234 233 234 235 241 240 241
184 198 183 192 205 188 191 127 105 132 231 146 107 110 79 34 9 22 360 321 265 251 251 250 254 259 264 263 262 262 254 251 247 242 239 239 237 234 235 232 234 238 236 237
211 154 122 272 190 182 172 169 154 161 208 161 100 88 67 36 14 360 351 335 322 296 270 258 259 262 263 266 265 266 261 255 250 244 239 240 239 235 233 232 235 241 236 235
145 114 172 249 310 160 139 120 147 99 116 134 134 107 72 40 15 358 349 340 334 314 297 282 268 260 255 261 262 265 262 258 255 249 242 240 237 235 232 233 239 243 237 234
141 184 272 324 180 148 161 209 199 138 129 129 148 154 48 33 21 7 358 346 338 320 308 297 280 262 248 249 254 261 261 261 259 252 244 238 235 234 232 235 238 238 237 232
143 150 203 223 170 134 118 235 198 155 143 146 147 139 233 47 37 29 18 7 357 347 336 323 305 262 235 230 242 257 266 265 262 259 251 244 239 233 234 235 237 237 231 228
163 184 285 261 293 62 142 229 162 165 146 141 126 131 125 83 56 41 34 29 24 17 32 47 77 136 216 222 233 264 270 269 259 257 251 242 236 233 234 233 232 230 226 223
104 112 251 28 350 167 205 128 143 140 129 119 122 124 113 85 62 44 34 34 40 43 45 56 78 69 5 274 281 278 278 274 268 255 246 240 236 235 233 232 230 225 220 218
154 187 345 340 161 178 144 143 149 145 141 137 132 125 112 88 65 50 40 34 32 33 44 58 64 47 321 324 315 304 284 277 267 253 244 239 240 234 232 231 227 222 219 218
82 6 20 54 107 129 143 137 144 142 143 143 133 125 109 72 38 20 13 13 15 12 18 10 340 325 314 306 292 291 294 294 275 258 253 248 240 238 235 230 226 222 220 220
63 95 79 78 101 115 116 123 126 128 130 125 134 130 125 341 339 338 334 334 334 334 332 325 311 307 298 290 289 282 281 284 278 267 254 250 248 246 242 242 238 235 231 234
191 209 127 144 122 123 121 120 127 138 132 132 144 148 240 304 311 306 304 309 313 317 313 306 295 294 293 286 276 276 272 271 273 267 260 254 245 243 240 239 239 238 240 248
180 173 172 153 152 149 142 137 139 146 146 155 159 233 291 303 305 305 304 303 301 303 307 307 299 292 297 300 293 280 274 269 266 266 265 259 252 248 242 238 235 234 236 241
128 137 129 146 150 146 145 139 137 132 134 224 295 300 299 297 294 294 292 291 290 292 294 295 296 296 297 290 289 288 287 278 271 267 268 265 258 253 248 246 242 239 238 232
159 192 174 170 158 153 151 146 148 196 258 279 291 299 302 304 305 306 305 303 299 296 291 287 286 284 281 281 279 278 281 281 278 273 267 264 261 253 250 248 246 240 236 228
136 171 171 166 161 161 167 179 220 241 251 261 280 302 314 318 319 319 318 318 316 315 316 312 302 294 280 276 276 273 270 274 279 273 270 266 260 255 247 245 243 239 237 234
137 143 159 170 182 193 205 212 217 220 229 259 290 302 307 307 304 309 316 315 315 316 319 319 313 305 295 286 278 275 274 268 267 273 274 266 262 256 252 244 241 241 236 235
215 219 212 226 221 211 211 210 208 222 252 276 292 301 307 309 310 310 307 308 311 314 317 321 321 317 308 297 288 279 272 270 267 267 270 268 264 259 252 248 244 240 236 238
129 227 234 227 223 219 221 223 232 245 258 280 291 302 310 315 318 313 310 307 308 308 314 313 317 315 312 309 302 291 277 271 267 262 262 265 260 257 255 250 246 242 237 236
22 255 238 236 233 238 246 247 246 257 275 284 294 306 312 317 320 317 312 311 316 314 309 312 314 315 312 309 306 307 296 275 266 263 259 257 256 253 254 252 249 244 240 235
298 284 275 267 257 253 256 259 263 272 282 282 290 298 303 308 316 319 319 318 328 316 309 311 315 315 313 309 301 296 298 292 274 263 259 257 255 253 252 251 251 245 240 236
314 302 294 274 263 262 264 267 270 274 277 280 288 292 290 300 307 311 315 322 323 322 318 316 317 316 316 313 305 295 292 288 282 266 258 254 253 253 254 253 252 248 241 237
300 298 297 288 285 280 279 277 274 272 271 274 286 290 284 291 301 308 311 318 320 323 327 328 322 316 315 315 310 302 294 287 282 269 259 253 251 251 251 250 251 247 238 235
299 294 294 295 294 295 293 286 279 280 271 263 272 282 282 288 294 297 304 308 310 315 319 323 324 318 315 317 313 307 300 290 277 271 263 254 248 247 247 247 247 244 239 237
303 297 294 293 293 294 299 300 287 279 275 271 284 282 278 281 292 300 297 299 304 305 311 316 323 319 316 318 315 308 302 294 281 269 258 254 248 247 243 243 243 241 239 234
297 296 296 295 294 294 291 286 287 290 290 286 288 290 274 284 292 292 294 288 296 297 302 309 318 317 316 316 316 309 303 294 283 270 261 254 249 244 241 241 240 239 239 232
303 298 297 295 291 292 289 288 287 287 289 289 290 289 289 289 288 289 286 284 290 289 293 304 307 314 312 313 314 306 298 287 278 274 266 257 251 247 245 242 240 239 233 226